User: anonymous   Login
Location: Newark
(48.3453°N, 0.5589°E)
Time: 00:36:27
(UTC+00:00)
Language:

Courier 1B Rocket - Orbit

View from above orbital plane
View from above orbital plane
View from above satellite
View from above satellite

Ground track
Ground track

The orbit data is extracted from the following two-line orbital elements,

1    59U 60013B   19343.66459581  .00000074  00000-0 -17942-4 0  9997
2    59  28.2472 118.2361 0189095 124.8300 237.0186 13.52972215921256
Epoch (UTC): 09 December 2019 15:57:01
Eccentricity: 0.0189095
inclination: 28.2472°
perigee height: 920 km
apogee height: 1202 km
right ascension of ascending node: 118.2361°
argument of perigee: 124.8300°
revolutions per day: 13.52972215
mean anomaly at epoch: 237.0186°
orbit number at epoch: 92125

The dashed part of the orbit path shows where the satellite is in the earth's shadow,  

DLR